Showing default

YAM-13, 68993

Orbit data source: Space-Track

YAM-13, 68993 is an American payload satellite in SSO that was launched on Sun, 03 May 2026 UTC via an FALCON 9 launch vehicle from the Air Force Western Test Range (AFWTR). Payload-class satellites include a variety of spacecraft equipped with specific instruments for various scientific and technological missions. These include communications satellites like Starlink; space stations such as the ISS; scientific satellites like the Hubble; Earth observation satellites from companies like Planet Labs, Umbra, and HawkEye 360; GPS; miniature CubeSats for education and research; and military/defense satellites.

Loading next visibility...
Identifier
68993, 2026-100P
Orbit
SSO
Country
Flag of USUS
Related business
Manufacturer
Airbus/Toulouse
Mission
Operational spacecraft
Bus & Motor
ARROW, Unknown motor
Mass
~150 kg wet, ~140 kg dry
Launch date (UTC)
2026-05-03 (2 months ago)
Launch vehicle
FALCON 9
Launch site
Air Force Western Test Range (AFWTR)
Object type
Payload
Rocket body
Debris
Shape & HBR
Unknown shape, 14.5 m
Radar Cross Section
Large (>1 m²)

Expand to show TLE details & history
Last TLE update: 16 hours ago

TLE from 16 hours ago
0 YAM-13
1 68993U 26100P   26175.19005198  .00001340  00000-0  14320-3 0  9999
2 68993  97.7364  72.5070 0011117  62.6259 297.6089 14.90383206  7740
Epoch: 2026-06-24T04:33Z
TLE epoch observation values (Epoch: 2026-06-24T04:33:40.491Z)
Latitude
Longitude
91.73746°
Altitude
596.193 km
Speed
7.564 km/s
True Right ascension
04h 50m 01s
True Declination
0° 00' 00"
Sunlit
Object was in daylight at epoch
Visualization orbit readout
Latitude
Unknown
Longitude
Unknown
Altitude
Unknown
Speed
Unknown
Apparent Right ascension
Unknown
Apparent Declination
Unknown
Sunlit
N/A
Visualization observer readout
Local Sidereal Time
07:35:51
Azimuth
Unknown
Elevation
Unknown
Doppler factor
Unknown
Orbital elements
Apogee altitude
601.51 km
Perigee altitude
586.009 km
Semi-major axis
6,971.897 km
Eccentricity
0.00111
Inclination
97.7364°
RAAN
72.507°
Arg. of periapsis
62.6259°
True anomaly
297.49594°
Mean anomaly
297.6089°
Eccentric anomaly
297.55243°
Mean motion
3.72835 °/min
Orbital period
96.56 mins
BSTAR
0.0001432
Loading maneuver chart data...
Computing Atmospheric mass density...
Loading historical data...
Loading historical data...
Loading historical data...
Loading historical data...
Loading historical data...
Loading historical data...
Loading historical data...

Documentation

Showing up to 5 results
|